CZ-6A DEB, 56285

Orbit data source: Space-Track

CZ-6A DEB, 56285 is space debris in SSO originally from a launch on Fri, 11 Nov 2022 UTC launched from the Taiyaun Space Center, China (TSC). Debris objects in space refer to the collection of defunct objects orbiting the Earth. Examples of debris include non-operational satellites, rocket bodies, and fragments generated from explosions, collisions, or faulty payload assembly.

Loading next visibility...
Identifier
56285, 2022-151ADD
Orbit
SSO
Country
Flag of CNCN / PRC
Related business
Manufacturer
SAST
Mission
Spacecraft
Bus & Motor
Unknown
Mass
Unknown
Launch date (UTC)
2022-11-11 (3 years ago)
Launch vehicle
Unknown
Launch site
Taiyaun Space Center, China (TSC)
Object type
Payload
Rocket body
Debris
Shape & HBR
Unknown shape, 0.1 m
Radar Cross Section
Small (<0.1 m²)

Expand to show TLE details & history
Last TLE update: 20 hours ago

TLE from 20 hours ago
0 CZ-6A DEB
1 56285U 22151ADD 25349.15919863  .00039327  00000-0  30776-2 0  9991
2 56285  98.6414  57.4816 0037773  82.4677 278.0832 15.00345747159069
Epoch: 2025-12-15T03:49Z
TLE epoch observation values (Epoch: 2025-12-15T03:49:14.761Z)
Latitude
-0.00007°
Longitude
-83.89166°
Altitude
565.263 km
Speed
7.581 km/s
True Right ascension
03h 49m 55s
True Declination
0° 00' 00"
Sunlit
Object was in full shadow at epoch
Visualization orbit readout
Latitude
Unknown
Longitude
Unknown
Altitude
Unknown
Speed
Unknown
Apparent Right ascension
Unknown
Apparent Declination
Unknown
Sunlit
N/A
Visualization observer readout
Local Sidereal Time
22:46:47
Azimuth
Unknown
Elevation
Unknown
Doppler factor
Unknown
Orbital elements
Apogee altitude
589.096 km
Perigee altitude
536.66 km
Semi-major axis
6,941.015 km
Eccentricity
0.00378
Inclination
98.6414°
RAAN
57.4816°
Arg. of periapsis
82.4677°
True anomaly
277.65437°
Mean anomaly
278.0832°
Eccentric anomaly
277.86881°
Mean motion
3.75326 °/min
Orbital period
95.92 mins
BSTAR
0.0030776
Loading maneuver chart data...
Computing Atmospheric mass density...

Documentation

Showing up to 5 results
|